GFSMW_sfc_thetae_084.txt.gz
Theta_e
316 318 321 323 326 330 332 337 338 336 340 336 335 338 341 349 349 352 353 352 350 348 351 349 346 353 346 343 346 342 343 346 350 346 344 345 350 346 347 348 347 346 347
313 316 318 321 325 328 330 333 333 335 337 331 335 341 336 339 341 348 352 352 352 349 351 347 346 347 344 345 345 345 341 345 349 344 342 335 340 345 346 345 344 345 349
311 315 316 319 323 325 327 328 331 328 332 336 329 329 331 332 334 333 335 349 354 347 346 346 346 346 342 340 344 347 345 341 347 349 342 335 331 339 344 343 342 345 344
312 315 316 318 322 322 324 327 330 330 325 336 331 330 326 325 328 330 333 339 352 352 348 344 347 344 345 342 342 347 345 348 344 347 347 346 345 335 333 343 343 343 343
311 312 313 316 318 321 323 326 328 330 333 331 330 331 331 331 329 330 331 335 343 347 352 351 347 347 345 344 347 343 347 350 346 345 346 345 343 345 337 330 335 339 341
310 312 315 317 318 319 320 325 328 331 333 332 330 326 332 331 329 327 332 332 332 337 337 351 349 348 348 349 349 348 353 350 348 347 345 345 339 337 337 334 332 332 335
308 310 312 315 317 317 320 323 324 327 331 331 332 329 329 331 330 331 330 327 327 334 336 343 351 351 350 350 353 348 353 350 347 344 347 349 345 343 339 337 333 332 333
308 310 312 315 315 318 320 321 323 326 328 329 329 332 330 328 327 328 329 329 327 328 336 340 338 349 350 353 352 352 351 349 349 349 351 349 347 346 342 340 335 329 329
310 309 311 313 316 317 322 323 323 324 327 325 326 330 330 331 327 328 331 331 333 332 331 332 344 343 347 341 334 333 344 348 350 352 350 351 348 346 345 343 339 333 322
308 308 311 314 315 316 320 324 324 322 322 325 326 322 325 329 328 329 328 329 330 332 332 332 336 338 353 345 337 338 348 349 349 352 351 349 347 348 345 343 339 337 330
307 308 310 313 313 315 314 320 321 321 321 323 325 326 323 323 325 326 327 330 331 331 331 331 330 334 347 352 354 351 350 349 350 351 348 348 349 346 344 342 341 334 333
308 309 310 312 312 313 314 316 322 319 320 322 321 321 326 325 325 325 327 330 331 333 332 331 331 330 337 348 352 351 352 350 349 348 348 348 349 347 345 343 339 334 335
308 309 310 311 312 312 314 314 317 317 318 318 318 321 322 322 322 325 326 327 328 330 333 332 332 332 333 334 349 352 351 349 349 349 349 348 345 344 342 341 338 336 336
309 309 310 310 313 314 314 314 315 317 317 316 317 320 322 321 319 323 326 326 327 326 328 333 334 334 336 335 344 351 350 349 348 350 350 347 344 344 342 340 338 337 334
307 309 309 312 314 314 316 315 316 316 317 316 314 318 320 320 319 319 320 323 324 325 326 329 335 336 336 337 344 349 349 348 347 349 348 346 343 336 340 339 338 336 333
307 309 310 311 312 314 314 315 317 317 318 316 315 316 316 315 316 318 317 318 318 324 326 327 332 333 337 320 318 341 349 347 346 347 347 341 327 321 316 316 317 333 334
307 308 309 311 314 314 316 315 317 317 316 316 315 315 315 313 314 314 314 315 316 319 324 326 329 335 338 317 311 321 348 346 346 345 342 337 336 329 326 314 316 313 315
307 308 310 312 314 315 315 315 315 316 316 315 315 314 313 311 311 312 312 313 313 314 316 324 328 334 337 315 307 316 346 345 345 345 344 339 336 336 334 330 330 330 326
308 309 311 311 312 312 312 313 313 313 313 313 313 313 313 310 309 310 310 312 312 311 313 319 327 333 336 307 307 322 344 343 343 344 342 340 336 315 313 332 329 329 323
309 308 309 311 310 312 314 312 310 310 312 311 311 312 312 311 310 310 310 310 310 311 312 315 326 328 337 304 306 329 343 340 340 339 334 317 332 305 309 332 331 328 328
307 308 308 308 309 310 310 307 307 306 310 312 311 311 311 311 310 309 310 309 309 310 313 317 328 334 337 320 306 318 341 340 336 335 331 325 304 303 302 310 332 327 329
306 306 305 306 307 308 307 305 304 307 309 308 308 307 307 308 308 307 307 306 309 311 315 322 330 336 335 315 308 314 323 323 334 333 334 314 298 298 299 312 305 306 317
302 304 304 305 306 306 305 303 304 307 307 306 305 306 306 305 306 306 305 306 311 313 318 326 330 333 333 318 305 306 311 312 333 335 316 298 297 298 302 299 300 304 326
301 302 302 301 302 304 304 305 306 306 306 306 306 308 312 307 305 307 308 309 316 318 324 329 330 332 326 323 322 316 314 306 310 306 308 309 310 312 311 312 311 325 326
299 301 300 299 300 301 302 305 306 307 306 309 312 314 309 307 305 306 309 317 324 326 330 332 333 328 326 327 320 323 328 328 318 318 321 322 323 322 323 323 323 325 325
298 297 297 297 299 302 304 305 307 308 310 312 320 320 315 314 312 315 314 297 310 307 309 312 326 329 314 305 304 303 304 304 306 323 323 323 323 322 321 323 324 325 321

GFSMW_sfc_thetae_087.txt.gz
Theta_e
308 311 316 317 319 322 323 322 323 326 335 338 339 336 342 343 343 345 344 343 344 345 346 343 341 342 341 335 333 335 333 332 337 336 335 337 339 341 340 340 339 341 341
306 311 313 314 316 318 319 321 326 327 328 326 327 331 334 336 341 344 344 346 344 341 341 343 341 339 339 337 337 336 332 334 340 337 332 329 331 336 339 339 339 340 342
305 308 311 313 316 316 316 317 317 320 323 326 323 323 323 325 326 328 332 343 347 345 342 343 341 340 339 336 335 336 334 330 337 341 335 327 325 331 337 338 338 337 339
305 307 310 312 314 315 315 316 318 317 317 322 323 321 320 318 320 323 327 328 332 343 342 340 342 340 340 337 335 339 338 338 332 337 343 339 337 329 328 336 337 337 339
302 307 310 313 314 314 313 313 315 316 317 319 319 321 321 323 325 325 322 322 329 338 348 342 339 340 339 340 339 338 339 340 339 337 336 336 334 336 333 329 330 333 335
305 307 309 312 311 310 311 314 314 314 317 318 319 319 319 323 323 322 323 327 329 329 332 339 344 341 342 340 339 342 340 341 342 343 340 332 333 331 333 332 328 327 330
303 304 305 308 307 308 310 313 314 314 318 318 321 319 319 320 323 324 325 325 324 322 328 333 332 338 343 344 343 342 343 344 345 345 339 340 339 338 337 333 330 327 328
300 302 307 308 308 309 309 312 312 311 318 320 320 322 321 321 320 322 324 325 326 326 325 331 335 337 346 346 345 346 344 346 346 340 340 340 342 342 339 333 330 322 322
299 300 304 306 307 308 311 311 311 312 316 318 319 319 319 319 320 320 320 324 327 329 326 327 328 331 336 343 347 346 346 345 343 344 343 338 337 341 342 336 333 325 317
301 301 303 304 305 306 308 312 312 312 313 315 313 315 318 321 322 321 321 320 321 325 327 327 327 328 331 338 340 342 336 340 343 344 333 332 330 337 343 337 334 330 324
300 301 301 304 305 306 304 308 313 313 314 314 316 315 314 315 315 318 321 323 324 325 326 327 327 327 325 326 338 340 336 338 342 344 338 334 332 334 342 336 333 330 325
303 303 303 302 304 305 305 305 312 313 315 315 315 315 315 316 315 316 317 319 322 326 327 329 328 328 328 326 328 335 346 344 344 344 344 343 346 342 341 336 332 329 326
304 305 307 306 304 303 304 305 308 312 313 315 312 310 312 310 310 312 315 317 318 320 323 324 325 327 329 328 326 328 335 346 343 344 346 345 343 342 339 334 332 330 330
304 306 306 307 305 305 306 307 307 308 310 311 310 310 311 311 312 314 314 315 318 319 319 321 323 324 325 330 329 329 326 335 347 345 346 344 343 344 340 334 331 329 327
304 304 304 306 304 306 307 309 308 308 310 310 310 308 312 312 311 311 312 313 315 316 316 318 321 322 323 326 331 329 330 329 342 345 346 345 340 334 336 336 331 329 324
305 306 306 306 308 308 308 309 310 310 310 310 309 310 311 312 311 312 312 313 313 311 312 313 314 319 323 314 312 319 330 335 345 342 344 344 328 327 322 323 324 329 326
303 303 304 305 306 306 309 308 309 309 310 311 311 312 311 311 309 310 311 309 308 309 310 311 313 315 319 310 309 312 323 330 341 342 342 336 335 327 327 316 314 317 319
304 303 303 303 303 305 306 308 309 309 309 309 310 311 312 311 310 309 308 306 306 307 308 309 310 311 313 308 307 309 322 330 340 341 339 336 327 327 326 325 325 323 322
301 301 303 303 303 304 306 306 307 308 309 309 309 310 311 311 310 307 306 306 306 306 306 308 309 309 310 304 305 310 323 330 338 340 338 333 330 312 311 327 324 321 316
303 302 303 303 303 303 304 305 306 306 307 309 310 311 311 311 311 310 308 307 306 306 307 307 308 307 308 304 303 309 323 330 337 336 335 317 328 307 310 326 324 320 317
302 303 303 302 302 303 303 302 303 303 305 306 307 306 307 310 311 311 310 307 305 306 305 306 307 308 308 309 303 306 320 332 336 333 330 329 309 305 305 314 325 322 321
301 302 300 300 301 301 302 301 301 304 305 305 305 306 307 309 310 310 310 309 307 304 304 304 305 307 309 307 307 305 303 321 334 330 328 321 304 301 305 314 302 305 314
298 299 298 299 300 300 300 299 301 303 304 304 304 306 307 307 307 307 308 308 307 304 303 303 303 305 310 317 308 302 302 310 331 329 316 301 297 298 303 300 301 307 320
296 297 296 296 297 300 301 300 301 302 302 302 303 304 304 304 305 306 306 306 305 303 303 303 303 306 313 322 316 315 314 309 314 307 307 306 307 310 306 307 308 320 320
295 296 295 296 297 298 299 300 301 303 303 304 304 305 306 307 307 306 305 305 305 305 303 303 306 309 317 322 317 320 324 322 315 313 316 317 317 314 314 315 316 317 319
294 294 295 295 296 298 300 301 303 304 303 303 305 307 305 304 305 306 303 299 301 299 299 302 309 320 315 305 303 305 304 302 305 319 318 317 317 316 316 316 315 318 316

GFSMW_sfc_thetae_093.txt.gz
Theta_e
301 305 306 307 312 316 317 324 329 330 334 334 333 332 335 334 335 337 340 340 341 345 345 344 343 341 339 337 336 333 331 329 330 329 328 332 333 333 334 336 336 336 337
299 302 305 310 314 316 317 318 325 329 331 330 325 325 325 332 334 336 338 338 338 338 341 343 342 341 339 337 336 333 330 329 330 326 327 323 328 330 334 335 335 335 338
298 299 303 308 312 314 315 317 320 325 326 323 319 318 319 320 324 328 333 339 339 335 332 333 339 343 339 339 334 334 332 329 330 332 324 320 321 327 331 335 336 336 337
298 298 301 305 311 314 315 317 318 319 321 320 317 317 317 317 316 317 319 325 338 339 335 335 339 342 340 338 335 335 334 331 328 330 334 331 330 327 326 331 333 334 336
298 299 300 304 310 313 315 317 315 314 317 318 317 316 314 315 316 318 319 318 320 325 329 337 339 339 338 337 336 334 333 332 330 330 330 331 332 332 331 329 328 332 333
299 302 305 303 309 313 311 310 310 310 311 315 316 316 315 315 315 315 316 316 318 322 324 327 335 338 337 337 337 335 333 333 333 334 333 331 328 325 327 327 325 327 330
300 304 302 305 310 310 309 310 309 308 310 310 312 313 313 312 313 314 314 314 315 317 318 320 323 329 337 338 338 336 335 335 334 334 335 334 335 333 329 327 324 325 329
299 303 305 306 307 306 306 309 308 308 309 310 310 311 311 311 312 313 314 316 317 318 321 320 321 323 329 334 337 335 336 336 335 335 337 338 339 338 335 332 326 322 320
298 302 303 304 306 307 308 309 310 308 310 312 311 311 312 312 313 314 314 316 316 319 319 321 322 324 327 330 332 334 334 337 337 337 337 337 340 340 339 335 331 327 317
298 299 301 304 306 305 304 305 308 309 310 312 312 313 314 315 315 314 314 314 315 316 318 319 320 321 323 325 326 327 331 332 332 336 337 338 339 339 339 338 334 329 323
299 299 300 302 303 303 305 305 306 308 307 309 311 312 314 316 315 313 314 313 314 315 316 318 319 320 321 321 321 323 324 326 328 330 332 335 338 335 334 336 335 331 330
301 301 300 303 304 304 304 302 307 308 309 310 310 313 314 315 315 315 314 314 314 315 317 318 319 321 322 322 322 322 324 326 326 331 333 332 336 334 333 331 330 333 333
303 303 301 300 302 302 303 302 301 305 307 308 307 310 313 312 312 314 315 314 315 315 315 317 319 321 322 323 322 323 324 325 326 326 328 332 333 332 333 333 331 332 333
302 302 299 300 301 301 301 302 303 302 304 307 308 308 311 312 312 312 312 311 313 314 314 315 318 320 319 318 319 319 319 319 322 327 327 328 333 334 332 332 334 335 333
303 302 301 300 301 301 303 304 306 307 305 303 307 309 310 311 313 312 312 312 311 313 314 315 316 317 318 319 317 317 315 315 319 324 326 327 328 328 328 331 330 334 331
299 301 302 302 301 301 303 304 304 305 306 306 305 307 308 308 309 310 310 310 310 312 313 314 314 314 316 308 307 310 311 314 316 319 322 325 323 325 319 318 316 328 331
297 298 298 299 300 300 302 302 303 304 304 305 306 307 307 307 307 309 308 308 308 309 309 310 311 311 310 303 303 305 310 310 311 315 319 323 327 323 335 324 314 314 313
295 296 296 297 298 300 301 302 302 303 303 304 305 306 306 307 308 307 308 308 308 307 307 308 309 309 309 303 301 303 307 307 308 312 318 322 324 325 328 335 329 328 326
295 296 297 297 298 297 299 301 301 302 302 303 304 305 306 306 306 306 307 308 308 308 308 308 308 307 308 302 301 302 305 306 306 310 312 315 319 314 306 332 329 327 321
297 294 295 296 295 295 297 297 299 300 300 301 303 304 305 305 305 305 306 307 308 308 309 309 309 307 308 300 299 301 306 303 304 305 309 307 311 307 306 325 329 323 320
295 295 295 293 294 296 296 296 297 298 300 301 302 302 302 302 303 303 304 305 307 308 307 307 308 308 306 304 298 298 305 305 304 305 307 311 306 304 301 306 328 324 319
294 295 294 293 295 296 294 293 293 296 298 300 300 300 301 302 303 302 302 304 306 306 306 306 305 307 306 302 298 297 300 302 305 304 306 308 302 301 298 302 307 304 311
293 295 293 292 293 295 295 294 296 297 297 297 298 298 300 300 301 301 302 303 303 303 304 305 304 304 304 305 299 296 297 297 302 305 304 301 298 298 300 301 303 306 320
291 292 292 292 293 295 296 296 297 298 298 297 298 299 299 300 302 303 303 302 302 302 302 302 302 305 302 303 302 303 301 298 300 302 303 303 303 303 310 308 310 321 320
291 292 291 292 292 294 295 297 298 299 298 298 298 299 300 300 301 302 302 303 304 303 302 302 303 302 304 302 302 303 305 306 307 307 312 311 311 313 315 316 320 318 316
291 291 291 292 293 294 296 297 299 300 300 299 300 300 301 302 303 302 302 299 300 299 298 297 302 305 301 297 297 297 297 297 296 309 311 312 316 318 318 318 318 317 313

GFSMW_sfc_thetae_096.txt.gz
Theta_e
300 301 303 306 307 309 316 327 331 333 337 336 336 336 338 339 338 341 342 343 343 344 343 343 342 342 341 340 340 338 336 334 334 333 332 335 337 336 336 339 341 341 343
298 300 301 303 308 311 313 319 328 329 336 339 332 334 333 334 336 337 339 341 343 345 344 341 340 342 341 340 340 337 335 333 333 332 331 324 330 334 338 340 341 342 343
297 299 299 301 305 309 313 316 324 330 333 332 324 321 323 326 331 334 336 339 340 339 340 338 335 341 341 339 339 337 335 334 334 333 331 324 320 330 337 340 341 342 342
297 297 298 299 302 307 311 315 317 327 332 328 326 322 323 321 325 328 328 336 339 338 336 334 332 336 339 338 338 337 336 334 332 332 335 335 333 327 326 337 339 339 339
296 297 299 300 301 305 309 315 317 321 325 326 328 321 318 319 318 320 321 322 328 335 337 337 336 338 339 340 340 338 335 335 334 332 333 332 334 334 331 326 332 335 338
298 299 301 304 305 303 308 313 316 318 319 321 320 320 319 318 317 317 318 319 320 322 325 328 335 339 338 336 337 337 335 335 335 335 333 333 331 329 330 330 331 332 336
297 298 302 305 304 304 309 312 314 313 316 317 317 318 318 317 317 316 316 316 317 319 322 326 328 331 336 337 338 335 334 335 334 335 336 337 335 334 331 330 329 330 335
298 297 303 306 306 308 309 310 310 309 310 312 313 314 315 314 313 314 314 315 316 318 321 322 323 325 329 332 337 337 334 336 334 335 337 336 338 338 336 334 331 327 326
298 297 300 304 306 305 306 308 309 309 311 311 311 311 311 311 311 313 314 315 317 319 320 322 322 325 327 330 331 333 335 338 336 335 335 334 337 339 339 338 336 330 323
299 299 300 301 304 305 305 306 309 308 311 313 313 312 312 312 312 313 314 316 317 317 320 321 323 323 325 326 327 327 330 333 335 336 334 335 335 338 337 338 338 335 332
298 299 300 301 302 303 305 306 307 310 310 309 312 311 313 313 314 314 315 316 316 317 318 319 320 321 322 324 324 324 326 326 327 330 331 332 333 333 335 337 338 335 332
299 301 301 302 302 303 303 303 309 310 310 310 310 311 313 314 314 315 315 316 316 316 317 319 320 321 322 323 322 323 327 326 326 327 329 332 334 334 334 336 335 334 333
301 301 302 302 301 302 303 304 304 306 309 310 310 310 311 312 313 315 316 315 316 316 316 318 319 320 322 323 324 325 325 325 325 327 327 328 330 332 334 334 333 333 333
301 302 301 302 302 302 303 303 303 303 305 307 309 309 309 311 313 315 316 316 316 316 316 317 318 320 321 323 324 323 322 323 324 325 326 328 329 329 331 333 333 332 331
300 301 300 300 301 301 302 302 304 306 307 306 305 306 308 309 312 313 314 315 315 316 316 316 316 319 320 320 321 321 321 321 320 321 325 328 327 323 323 326 328 332 331
298 298 299 299 299 299 300 300 301 302 304 304 305 307 308 309 309 311 312 312 312 313 314 314 315 316 317 310 309 317 319 319 318 317 320 324 322 321 315 315 315 325 332
295 294 295 296 297 297 299 298 300 302 303 303 304 306 307 308 308 310 311 311 311 312 312 313 314 315 316 306 305 307 315 314 315 316 317 317 320 319 325 320 316 313 313
293 293 294 295 297 296 297 298 299 298 299 302 303 304 305 306 307 308 308 309 310 310 310 312 313 314 314 304 302 303 313 313 314 314 314 316 319 321 321 323 326 332 323
294 295 296 296 295 296 297 297 296 296 297 298 300 302 303 304 306 306 307 308 308 308 309 310 310 311 312 302 301 303 310 311 311 313 314 314 314 307 302 315 318 325 329
296 295 295 297 297 296 296 295 294 295 295 297 299 301 303 304 304 306 306 307 308 309 309 309 310 308 310 301 299 303 310 309 309 311 311 304 308 302 300 310 317 321 327
294 295 297 296 295 295 295 294 294 294 297 298 299 300 301 302 303 304 305 306 306 308 308 309 310 310 308 309 298 298 311 310 308 309 309 311 301 299 297 297 312 318 325
295 295 293 293 294 296 295 294 293 295 296 297 296 297 298 299 300 300 302 303 303 303 304 306 307 309 311 304 298 297 302 304 308 308 309 310 299 298 297 298 300 299 307
293 292 292 293 293 294 295 293 294 296 297 297 297 298 298 299 299 299 300 300 301 301 301 302 302 305 308 309 299 297 297 299 307 310 306 300 297 294 297 297 297 298 320
291 292 292 291 291 293 294 294 296 297 297 296 296 297 297 298 299 299 299 299 299 299 300 301 303 305 307 307 306 303 301 300 304 303 306 303 300 296 302 307 304 313 323
291 291 290 290 291 293 293 295 296 297 296 296 297 297 298 298 299 299 300 301 303 301 301 303 304 305 305 305 302 303 304 304 304 305 308 309 311 311 311 313 313 321 321
290 290 290 291 291 293 293 295 296 297 296 296 298 299 299 300 299 299 300 298 298 298 297 297 302 305 301 297 296 296 297 297 296 306 309 310 311 311 311 314 317 319 317

GFSMW_sfc_thetae_102.txt.gz
Theta_e
315 317 319 321 322 326 330 333 335 351 355 353 352 351 349 351 351 352 353 352 349 350 354 350 351 351 347 349 354 353 354 349 350 346 343 345 349 349 348 352 349 348 350
314 315 317 319 322 325 329 332 336 339 350 351 352 350 349 350 352 353 354 352 351 351 349 349 349 352 345 352 355 355 345 345 350 338 345 334 337 344 346 350 352 357 354
312 314 316 318 321 323 326 329 334 338 341 351 349 351 352 352 350 351 351 352 352 352 351 352 354 354 353 352 353 350 346 335 338 345 334 328 326 335 343 346 347 352 350
313 314 315 317 319 320 323 327 330 335 337 344 347 355 347 343 346 350 351 352 352 351 351 353 354 358 354 355 352 349 347 344 335 337 341 345 341 337 330 340 344 347 348
312 314 316 318 319 321 322 325 329 333 336 339 346 345 348 342 343 345 355 357 357 352 351 354 355 355 353 356 351 350 350 339 335 332 333 339 346 344 334 327 335 340 344
313 314 317 318 318 320 322 326 329 330 333 336 338 345 349 349 341 344 345 348 352 354 355 354 355 355 351 349 348 352 351 347 345 338 338 336 334 336 336 332 334 334 339
311 312 314 315 317 319 322 325 327 328 331 332 333 335 343 350 354 353 345 350 347 347 355 355 354 352 353 352 351 351 350 349 347 349 339 339 337 338 337 333 331 331 333
310 311 312 314 316 318 320 321 324 326 329 330 331 332 334 335 341 348 344 344 344 346 354 353 353 353 351 351 352 348 348 351 346 347 347 339 336 337 335 332 331 325 327
310 310 312 314 315 317 319 320 322 325 328 329 331 332 332 334 338 348 349 346 350 342 345 346 346 346 345 345 348 345 346 347 348 349 349 342 338 338 339 337 335 326 318
309 310 311 313 315 316 318 320 321 321 324 326 328 330 332 334 339 342 343 343 341 340 330 337 340 339 339 340 342 340 341 342 342 341 346 348 340 341 345 344 337 335 329
308 309 311 313 315 316 316 318 319 319 319 322 326 327 330 330 334 336 338 335 334 331 329 329 328 329 330 333 336 337 334 335 338 340 339 340 345 340 338 338 337 334 332
308 309 311 313 313 314 315 316 317 316 318 320 321 324 326 326 326 327 329 331 332 331 329 328 328 327 327 330 331 331 329 330 332 334 336 335 335 339 340 336 338 336 336
308 308 309 310 312 313 314 315 315 315 315 316 317 320 323 326 327 328 329 328 329 331 329 328 326 326 326 327 329 327 326 327 329 330 331 332 333 334 333 334 332 332 333
306 307 307 308 310 311 311 312 313 314 314 314 313 315 316 319 323 327 327 328 327 326 328 328 326 325 326 326 326 326 327 326 326 328 328 328 328 330 331 332 333 333 332
305 306 306 306 308 308 309 309 310 311 312 311 312 312 315 317 318 321 324 325 323 323 324 326 327 326 325 323 325 326 327 327 327 327 326 329 326 322 323 325 327 329 328
303 304 305 305 305 306 307 307 308 309 310 309 308 311 313 314 317 320 320 322 320 322 322 323 325 328 325 311 310 321 327 327 327 327 327 327 320 320 314 313 313 318 323
303 303 303 304 305 306 307 307 308 309 308 308 307 308 310 311 313 316 318 320 322 323 323 323 324 329 334 306 305 309 330 328 328 328 328 326 322 320 323 313 310 311 310
303 303 304 304 305 306 306 307 307 307 306 306 307 308 309 309 310 312 315 318 320 322 323 324 326 327 329 307 302 305 329 332 332 330 329 329 326 325 325 324 322 321 322
304 304 304 304 304 304 305 303 303 304 303 305 307 308 308 308 308 309 312 315 316 319 321 322 324 326 326 305 302 306 325 327 329 327 329 328 327 313 303 322 320 320 322
303 300 301 302 301 302 303 302 302 301 301 303 304 306 306 307 307 309 310 312 314 315 316 318 323 317 325 307 300 307 323 325 324 330 330 309 319 305 301 322 321 319 320
299 302 301 299 300 302 301 300 300 300 303 304 304 304 306 307 308 308 310 310 311 313 315 316 321 322 321 322 300 299 323 321 322 322 325 326 304 302 298 304 322 319 318
299 302 299 299 300 301 299 299 299 303 303 303 302 301 302 303 305 307 308 310 310 310 312 313 315 317 323 308 301 298 301 312 323 324 324 325 301 300 298 300 303 298 300
300 299 298 297 300 299 298 297 299 301 301 301 300 301 302 302 304 304 305 305 307 306 307 308 311 313 316 320 302 298 297 300 317 323 317 307 298 298 299 296 295 294 314
296 297 296 295 294 296 297 298 299 299 298 297 298 300 300 300 302 303 304 304 304 305 305 306 308 309 313 316 320 315 309 300 307 310 318 313 310 306 312 312 306 315 318
295 294 293 293 292 294 295 297 298 296 294 296 296 297 297 298 299 301 302 302 305 305 306 307 307 308 309 311 309 312 317 316 311 313 317 317 317 317 317 318 318 319 319
293 291 291 291 292 292 293 294 296 295 294 293 294 295 296 297 297 298 298 297 297 296 295 296 302 306 301 297 297 297 297 299 298 311 313 315 315 315 315 315 316 318 316

GFSMW_sfc_thetae_105.txt.gz
Theta_e
317 319 320 322 323 327 328 333 336 352 356 354 352 353 351 353 353 355 361 361 358 357 362 353 357 359 355 352 356 349 352 346 355 349 344 349 355 356 352 353 356 353 351
315 317 319 321 322 325 329 332 335 343 348 347 355 354 354 350 351 352 359 359 359 361 360 358 355 358 350 356 356 354 344 348 353 342 341 332 338 345 352 352 354 355 355
314 316 317 319 321 322 326 332 337 342 346 350 348 358 356 353 347 347 350 357 359 359 357 359 356 356 354 347 354 355 355 343 348 351 337 328 327 333 345 352 349 354 352
315 316 317 319 321 322 324 326 331 338 340 349 343 348 343 342 342 343 345 354 361 359 357 357 357 355 351 350 355 356 355 352 340 343 343 346 339 329 328 339 346 350 351
315 315 316 319 321 322 323 326 333 334 337 342 348 339 342 337 341 344 351 356 359 361 357 358 356 358 357 358 359 358 357 348 343 338 336 340 336 340 335 327 329 338 345
314 316 317 319 320 321 323 326 329 333 335 336 340 346 347 346 340 341 342 345 350 355 358 355 357 360 360 359 356 357 357 354 348 342 340 333 330 332 333 331 333 335 335
313 313 315 316 318 320 321 323 325 328 332 333 334 336 342 346 350 347 340 341 343 347 354 356 354 354 359 359 357 356 354 354 350 353 340 338 337 337 336 340 336 328 329
314 313 314 315 316 318 320 321 322 323 327 330 333 335 337 333 334 340 340 342 338 342 341 352 349 348 354 356 357 352 351 355 352 353 353 343 339 342 338 333 331 323 326
312 313 314 315 316 317 319 320 321 323 324 326 330 333 335 337 336 342 344 342 348 346 352 341 340 342 344 353 355 349 350 352 352 354 353 347 342 341 340 339 338 333 327
312 313 313 315 316 318 319 320 320 321 322 323 326 328 331 334 336 341 342 344 349 351 351 342 336 334 343 345 350 349 350 350 344 343 349 347 343 343 341 341 332 340 333
311 312 313 314 315 316 316 318 319 318 319 322 324 325 328 330 333 336 338 343 347 347 342 341 341 340 341 339 340 340 339 338 344 346 341 342 346 339 341 337 337 331 333
310 311 311 312 312 314 315 316 318 318 318 319 320 322 326 329 329 331 334 338 339 340 337 332 331 327 326 328 327 329 330 331 334 335 339 338 336 344 344 340 344 338 339
310 310 310 310 311 312 314 314 315 315 317 318 318 319 321 324 329 330 330 331 333 333 331 328 326 325 324 325 328 328 327 330 331 332 333 336 338 340 337 338 334 332 335
309 309 310 310 311 311 312 312 313 313 314 315 316 317 319 320 322 324 324 324 328 329 330 327 324 323 323 324 325 326 326 327 326 332 333 332 334 335 337 336 337 335 332
307 308 308 309 310 310 310 310 311 312 313 312 312 314 317 319 319 321 319 319 318 326 326 327 326 326 324 323 326 326 326 329 328 331 327 333 328 322 325 327 334 335 329
306 307 308 308 308 309 309 310 310 310 312 311 311 312 313 314 316 318 322 318 316 321 324 325 323 327 324 310 310 324 330 330 330 329 329 329 325 321 315 315 313 317 325
306 306 307 308 309 309 310 309 309 311 310 310 310 310 311 311 313 316 317 317 316 317 321 325 326 327 330 309 305 308 332 330 330 333 332 329 324 323 323 313 311 311 309
305 306 307 307 308 307 307 309 308 307 306 306 307 309 309 310 311 313 315 320 323 321 320 319 322 327 328 307 303 304 326 332 334 334 334 333 333 330 326 325 325 325 325
305 305 306 305 306 306 306 305 306 305 305 304 305 306 307 308 310 311 316 318 319 322 325 325 327 328 327 306 302 306 321 327 333 333 335 333 332 317 305 324 324 323 325
303 304 304 303 304 304 305 303 303 302 302 303 304 306 306 307 309 312 315 316 317 317 318 321 326 321 328 310 301 307 325 327 326 333 334 311 325 309 302 327 326 323 325
302 302 302 302 302 303 305 302 301 300 303 303 305 305 306 305 307 309 313 315 314 314 318 319 323 327 326 327 302 300 325 325 326 325 327 330 306 301 299 306 330 325 325
301 302 300 302 302 303 302 301 299 303 303 302 304 304 304 305 305 306 305 309 312 314 315 316 318 320 326 311 303 300 302 316 325 325 326 328 303 303 299 303 306 299 304
299 299 299 298 299 299 300 298 300 301 300 301 301 301 303 304 304 303 304 304 307 307 308 310 312 315 317 323 304 299 299 302 319 325 319 307 301 302 302 300 302 296 315
297 296 296 294 295 296 298 298 298 298 298 298 299 300 299 299 303 303 302 302 302 304 306 308 310 312 315 318 323 315 311 302 309 312 320 316 312 310 316 312 305 316 319
295 294 292 292 293 294 294 296 296 296 295 296 297 296 296 296 298 300 302 301 303 304 304 307 309 310 312 314 310 313 320 320 316 316 321 323 321 320 320 321 321 320 319
292 290 290 290 290 291 292 293 294 294 293 293 294 295 296 295 296 297 298 297 296 296 295 296 300 310 302 296 297 296 297 301 300 313 317 318 321 320 320 319 319 321 316

GFSMW_sfc_thetae_111.txt.gz
Theta_e
309 310 314 313 316 317 316 318 319 321 331 331 346 347 348 349 351 352 351 347 348 347 344 345 347 343 343 341 340 337 335 335 334 332 333 338 341 341 342 343 343 342 343
308 310 311 312 315 317 317 320 322 327 324 330 331 343 345 347 351 351 352 351 345 349 348 344 343 347 345 343 340 341 336 336 336 333 330 327 331 338 341 341 341 342 345
307 308 310 312 314 317 320 320 322 323 332 327 326 328 330 339 341 344 347 349 348 347 345 347 346 344 345 344 344 344 338 336 334 337 332 323 321 327 335 338 341 342 343
307 309 311 311 313 315 317 321 322 325 326 328 330 328 327 328 331 332 339 346 343 336 337 330 346 343 344 342 343 347 340 333 332 338 341 334 328 322 322 333 338 340 341
306 311 311 312 312 313 318 318 320 322 326 326 326 325 325 327 330 333 332 335 340 330 330 330 345 327 329 345 344 344 344 338 336 337 338 339 335 329 323 319 325 332 338
309 309 310 310 311 312 315 314 318 317 319 322 325 327 326 325 327 328 330 331 333 336 343 345 335 328 337 345 340 334 335 339 339 338 338 334 332 331 325 321 321 321 325
307 307 307 308 308 310 311 313 315 314 319 318 319 321 324 328 328 328 327 326 328 328 330 336 340 342 334 329 326 321 325 332 331 325 322 320 323 332 331 326 323 322 324
307 306 307 307 307 309 311 312 312 311 315 316 315 317 321 324 324 326 326 327 328 329 331 332 334 336 334 333 332 323 322 323 326 327 328 324 321 321 330 328 324 317 316
306 306 307 307 307 308 310 312 311 311 314 314 312 315 317 317 319 324 328 330 329 332 332 330 328 332 333 330 331 325 323 325 323 321 321 320 322 321 319 331 329 321 313
306 306 306 307 308 307 308 310 311 313 313 313 312 315 313 315 317 319 319 322 327 330 331 332 332 330 326 327 326 323 322 321 320 321 320 320 322 322 327 330 327 325 319
306 306 306 305 305 305 305 306 308 310 311 313 313 313 312 314 314 316 318 321 323 324 326 330 332 333 324 321 318 317 320 321 320 319 316 317 323 322 326 329 326 323 318
305 305 305 306 306 304 305 306 307 309 310 310 309 309 314 313 313 313 316 318 320 322 320 320 322 324 327 326 323 320 323 324 319 317 317 316 322 320 324 331 325 321 317
306 304 303 304 305 305 305 306 306 306 308 308 306 306 307 310 311 312 314 314 316 318 320 317 318 318 321 328 327 326 324 319 318 316 318 318 319 319 327 331 326 322 321
304 303 303 303 304 304 305 306 305 306 306 306 305 305 305 307 309 310 311 312 314 317 317 318 317 319 317 324 327 325 319 319 317 317 318 321 324 326 330 328 326 323 318
304 303 303 303 303 305 305 305 305 305 305 305 304 304 305 307 307 308 309 311 312 313 315 317 317 317 317 318 313 315 320 321 318 318 322 323 325 326 327 327 324 322 319
301 301 302 302 302 302 303 304 304 303 305 304 303 305 306 307 306 306 306 306 308 310 313 316 315 314 317 308 305 312 314 318 321 322 324 324 319 317 317 317 316 318 315
299 299 299 299 299 299 301 300 302 303 303 302 304 305 304 304 303 303 303 302 302 304 308 313 313 311 310 306 305 306 315 315 319 319 318 320 319 316 315 311 309 308 307
299 298 297 298 298 299 299 300 301 301 301 301 302 303 303 303 303 302 301 301 302 303 304 306 312 311 312 305 303 305 314 314 315 318 319 315 316 317 315 309 306 307 307
297 297 299 299 298 298 299 299 300 300 301 301 301 302 303 302 302 301 300 300 301 301 304 306 309 310 310 303 302 306 312 313 315 321 322 316 318 311 308 312 309 311 313
297 297 298 299 297 297 298 297 297 297 297 298 301 303 303 303 302 302 301 301 301 301 303 303 306 310 311 304 300 304 313 314 314 314 320 308 312 306 303 316 313 312 313
297 298 298 295 296 297 297 295 295 294 296 299 299 300 302 303 302 302 301 301 300 301 302 302 305 306 311 314 302 300 314 317 312 313 316 313 303 301 302 304 318 315 316
297 296 296 296 296 297 296 295 294 295 296 294 296 298 300 301 302 301 300 300 301 302 301 300 302 305 306 305 304 299 302 310 317 317 316 313 300 300 299 301 306 303 310
296 297 296 295 296 295 295 292 292 293 293 294 293 296 297 299 299 298 298 298 301 301 300 300 300 302 305 306 303 299 298 300 312 317 314 307 301 298 298 299 301 303 314
296 296 295 294 292 292 292 292 292 292 291 291 291 292 293 294 295 297 298 298 299 299 299 299 299 300 302 304 306 308 304 299 304 308 309 310 309 306 309 304 304 309 313
295 294 292 291 290 290 290 290 290 290 289 289 290 290 291 292 294 295 296 298 300 300 300 300 300 300 300 302 296 301 309 308 307 309 312 310 311 310 310 310 307 308 311
292 292 290 289 289 288 287 288 289 289 289 288 289 289 290 291 292 292 293 295 295 295 294 293 296 302 298 294 295 295 294 293 295 307 310 311 309 309 311 312 310 309 310

GFSMW_sfc_thetae_117.txt.gz
Theta_e
304 304 305 309 321 328 333 335 331 331 333 332 330 334 338 342 345 345 343 339 340 341 341 341 340 336 335 336 335 335 333 334 330 328 328 329 332 333 334 336 336 338 341
302 304 304 306 315 326 331 331 331 327 326 324 337 340 340 340 341 341 340 344 344 341 341 340 341 340 338 336 336 333 332 332 331 329 324 324 328 331 335 336 338 339 340
300 302 303 305 311 319 323 326 322 323 321 318 323 324 324 325 327 327 329 332 334 339 341 342 340 340 341 337 334 334 333 332 333 332 328 322 319 324 327 333 336 331 334
301 302 302 304 310 311 313 316 318 318 319 320 320 318 316 316 320 321 325 327 332 334 336 339 339 338 336 333 337 335 330 331 333 331 334 332 327 322 321 327 329 327 326
303 301 302 307 309 313 314 317 317 320 322 321 319 318 317 318 320 321 320 321 325 332 334 332 333 333 332 330 331 332 333 337 332 331 331 329 331 329 325 321 320 325 325
303 305 308 311 310 311 312 314 316 315 318 318 318 318 317 318 319 320 319 319 320 322 326 329 330 327 325 325 328 329 327 328 330 332 330 329 326 324 321 317 318 319 320
304 306 306 307 308 308 310 311 313 312 312 313 312 312 313 317 319 317 316 316 317 319 322 324 326 327 327 326 326 325 325 326 328 328 325 323 323 326 324 321 317 313 316
300 301 303 305 306 307 308 308 310 310 310 310 310 310 314 314 313 315 315 316 316 319 321 323 324 325 328 329 328 329 329 327 328 329 330 327 326 327 325 319 315 310 313
301 301 303 303 304 305 307 307 306 307 309 310 309 309 312 311 311 312 313 314 316 320 320 320 321 322 324 326 327 328 327 329 330 330 329 326 327 325 324 319 315 314 308
304 302 301 303 304 305 306 306 307 307 307 310 309 309 310 310 310 310 311 312 313 317 316 317 316 317 319 321 322 323 326 329 328 327 326 324 325 321 320 320 318 317 317
309 308 306 303 304 302 302 303 304 306 308 309 308 308 308 309 309 308 309 310 312 314 315 316 316 316 315 315 315 317 320 322 323 321 321 322 324 321 319 319 317 316 315
304 306 306 304 303 301 303 303 304 303 303 304 306 306 306 306 307 308 308 309 311 312 314 315 315 316 316 314 314 316 318 319 319 320 319 320 322 318 317 316 315 317 321
301 300 300 302 302 302 302 302 301 301 302 303 302 301 301 301 302 305 306 306 308 310 310 312 314 315 315 314 314 316 318 319 320 319 320 319 318 316 315 316 317 320 324
299 299 297 297 299 300 300 300 299 300 301 302 301 300 300 301 301 302 303 304 306 306 306 308 313 314 314 314 315 316 316 317 321 320 320 319 318 317 315 316 317 319 320
298 298 297 296 297 297 297 299 298 299 300 300 300 299 300 301 301 302 303 304 305 306 307 307 308 311 313 315 313 313 313 315 317 319 321 321 321 319 316 316 316 319 318
296 297 298 298 297 297 297 298 298 299 299 298 299 300 300 301 301 301 301 301 302 303 303 304 306 305 310 308 307 310 310 312 313 315 318 318 317 316 313 314 315 321 318
296 295 296 295 295 295 297 296 297 297 297 297 299 300 301 301 300 301 301 300 300 300 300 301 302 303 304 303 303 305 308 310 312 313 314 314 320 315 317 312 312 312 312
294 294 294 293 293 294 294 294 296 297 298 297 298 299 299 298 299 299 299 299 300 300 301 301 301 302 302 300 299 302 304 306 309 311 312 311 312 315 319 319 316 315 317
294 293 293 293 292 292 294 296 296 297 297 297 297 297 297 296 296 296 295 296 296 299 300 301 300 299 300 299 298 299 303 305 307 310 312 312 313 309 304 319 317 316 316
294 293 293 293 292 294 294 294 295 295 295 296 297 296 295 296 295 294 297 296 296 299 302 301 300 300 299 298 298 299 303 305 307 309 311 307 310 304 301 316 314 310 307
293 293 292 291 292 294 294 293 294 294 296 295 295 295 294 293 293 293 294 293 294 295 296 300 301 301 301 299 297 297 301 305 308 309 310 314 303 300 299 303 311 309 306
292 292 291 293 294 294 293 292 292 293 293 293 293 292 292 292 293 292 292 293 294 296 297 299 299 300 301 299 298 297 297 302 307 309 311 313 301 299 298 301 299 298 304
291 292 292 292 292 292 292 291 291 291 291 290 289 289 290 291 291 290 290 290 291 291 296 298 298 298 301 302 298 297 296 297 300 311 309 304 298 298 300 299 297 300 309
291 292 291 290 289 291 291 290 291 290 289 288 287 288 288 288 289 290 291 290 291 291 292 295 296 297 298 300 301 299 300 298 301 306 311 306 302 303 304 302 302 308 311
291 291 289 289 289 290 289 289 289 289 287 287 287 286 287 287 288 289 290 290 292 293 293 294 295 295 298 301 299 299 302 303 303 306 310 311 312 310 303 303 304 305 309
290 289 289 288 289 288 288 288 288 288 286 284 285 286 286 287 288 288 289 291 291 292 292 291 292 295 294 295 294 294 295 295 295 305 306 308 310 310 307 306 306 305 306

GFSMW_sfc_thetae_123.txt.gz
Theta_e
312 313 315 317 319 322 328 342 347 351 350 347 346 346 345 348 348 350 353 352 352 352 353 352 353 353 349 350 350 348 347 345 345 342 341 340 343 344 342 344 345 347 348
313 315 315 316 318 323 325 334 345 349 349 348 349 348 348 349 351 353 353 353 350 351 351 351 351 352 349 350 349 346 344 343 345 339 339 330 334 338 341 343 344 345 347
312 315 316 317 317 321 330 333 341 347 348 349 347 344 346 346 348 351 352 351 350 351 351 350 349 349 348 346 347 345 343 340 344 345 337 328 324 333 337 339 340 344 341
314 316 318 319 318 316 319 330 340 343 343 345 346 345 342 339 342 343 344 340 342 342 343 345 347 348 346 344 344 346 343 343 338 341 341 339 335 326 324 335 339 341 339
315 317 318 319 320 322 322 327 334 338 338 340 344 343 339 340 335 336 338 339 340 341 340 342 343 343 341 343 343 342 341 340 339 336 336 336 336 337 330 325 329 336 338
313 315 318 322 323 325 327 331 333 333 335 336 336 338 336 334 332 333 332 332 334 336 339 338 341 342 340 339 339 340 340 338 338 336 338 335 331 332 330 329 331 332 336
312 314 315 316 318 321 325 329 331 330 333 333 334 335 336 337 336 335 331 332 330 331 334 338 338 335 338 338 338 338 338 337 335 336 333 334 335 337 336 333 330 331 334
313 313 313 315 316 318 319 321 323 323 324 325 326 327 329 330 331 333 330 329 328 329 334 335 335 335 334 335 336 332 332 336 334 332 332 330 331 333 334 334 330 326 328
312 314 316 315 315 316 317 318 319 320 320 321 324 324 325 325 327 330 331 328 331 328 331 332 331 332 331 330 332 327 330 331 331 332 334 332 332 333 332 331 331 326 321
310 312 314 317 317 315 315 316 316 315 316 318 319 319 321 322 323 324 325 328 329 328 328 329 330 329 329 328 330 326 327 328 326 326 329 330 329 331 333 332 328 327 324
309 311 312 313 312 312 311 311 311 311 311 312 314 315 315 317 319 320 322 322 323 323 323 324 326 327 327 328 328 327 324 323 324 326 326 326 329 326 327 329 331 325 324
309 308 309 310 309 309 309 309 310 309 309 310 311 312 313 313 314 314 316 318 318 319 319 321 322 322 323 324 324 323 320 320 319 320 322 321 321 326 327 326 328 327 325
306 306 306 306 306 307 307 307 308 308 308 308 308 309 311 311 312 313 314 314 314 314 314 314 315 316 318 321 322 321 320 319 319 319 320 320 321 322 323 325 324 324 326
303 304 305 305 306 306 307 307 307 307 307 307 307 307 309 309 310 311 311 311 312 311 311 312 312 312 312 314 316 319 320 321 319 322 322 320 320 320 322 323 324 325 322
302 303 304 305 306 306 306 306 306 306 306 305 305 306 307 308 308 308 308 309 309 309 309 309 310 312 312 310 313 315 319 321 321 323 320 323 321 318 319 319 322 323 321
302 303 304 304 304 305 305 305 305 305 305 304 304 305 306 306 306 306 306 307 307 308 308 308 308 309 310 304 304 310 316 318 319 320 320 320 318 318 314 313 314 319 321
302 303 303 304 305 305 304 303 304 304 304 304 304 304 304 303 303 304 305 305 305 306 306 306 306 306 308 303 301 303 312 315 317 317 317 316 315 314 318 313 311 311 309
303 303 304 304 305 305 304 304 304 303 303 302 301 302 301 301 303 303 303 303 302 301 302 302 303 304 305 300 298 300 305 310 314 315 315 315 314 313 313 314 316 319 320
304 304 305 304 304 304 304 303 302 302 301 300 300 300 300 300 301 299 299 299 299 299 298 299 299 300 301 298 297 298 302 303 308 311 313 311 311 304 301 311 310 315 319
304 303 303 303 303 303 303 301 300 300 298 298 298 299 299 297 296 294 294 295 295 294 294 294 296 297 298 297 295 296 300 300 305 309 310 303 306 300 299 311 311 311 317
303 303 302 301 301 302 300 298 298 297 298 298 297 297 295 293 293 292 293 293 292 292 292 293 294 295 297 298 296 295 299 301 303 305 307 308 300 298 297 298 314 314 318
301 301 300 299 300 300 298 296 295 297 296 296 295 293 291 292 292 291 291 291 291 290 290 290 292 295 296 296 296 295 295 300 302 304 306 307 298 296 296 297 301 300 303
300 300 298 297 298 297 296 294 295 294 294 293 289 290 290 290 290 290 289 289 289 288 288 289 290 292 295 295 298 296 295 295 300 304 303 298 297 296 296 295 298 297 311
298 297 296 294 294 295 295 293 293 293 291 288 287 288 288 288 289 290 289 289 288 288 288 289 289 291 293 295 298 302 301 297 299 301 304 303 301 299 305 304 302 308 313
296 295 294 293 292 292 291 292 291 290 287 286 286 286 286 286 287 288 288 288 290 290 289 290 291 290 291 295 293 292 296 299 301 303 307 307 307 305 307 310 309 311 314
294 293 292 291 290 290 289 289 288 288 285 284 284 284 285 285 286 286 286 289 289 289 289 289 290 292 292 291 291 291 291 291 291 299 305 305 307 308 309 311 310 310 311